EW8832 Weather Reports


Display with metric or nautical units.
time (UTC)temp
F
wind
direction
speed
MPH
gust
MPH
rain 1hr
in
rain 24hr
in
rain mn
in
humidity
%
barometer
mb
20260506061525 47 22 9.0 16.0 0.00 0.46 0.00 91 1010.3
20260506044510 48 35 5.0 16.0 0.00 0.46 0.46 90 1009.8
20260506043010 48 76 6.0 17.0 0.00 0.46 0.46 90 1009.8
20260506041513 48 69 5.0 12.0 0.00 0.46 0.46 90 1009.8
20260506040009 48 49 8.0 18.0 0.00 0.46 0.46 90 1009.5
20260506034505 48 65 5.0 15.0 0.00 0.46 0.46 90 1009.1
20260506033003 48 30 8.0 14.0 0.00 0.46 0.46 90 1009.1
20260506031600 48 80 7.0 17.0 0.00 0.46 0.46 91 1008.9
20260506030058 48 49 10.0 21.0 0.00 0.46 0.46 92 1008.4
20260506024600 48 38 10.0 19.0 0.00 0.46 0.46 92 1007.9
20260506023059 47 50 7.0 15.0 0.00 0.46 0.46 93 1007.8
20260506021553 47 76 9.0 17.0 0.00 0.46 0.46 92 1007.2
20260506020051 48 61 10.0 19.0 0.00 0.46 0.46 93 1007.3
20260506014548 48 80 7.0 14.0 0.00 0.46 0.46 92 1007.0
20260506013046 48 65 8.0 15.0 0.00 0.46 0.46 92 1007.5
20260506011544 49 22 5.0 11.0 0.00 0.46 0.46 91 1007.1
20260506010043 49 36 5.0 14.0 0.00 0.46 0.46 91 1006.7
20260506004541 49 36 7.0 12.0 0.00 0.46 0.46 92 1006.7
20260506003040 49 19 8.0 16.0 0.00 0.46 0.46 91 1006.5
20260506001540 49 22 7.0 15.0 0.00 0.46 0.46 92 1006.3
20260506000036 49 55 7.0 17.0 0.00 0.46 0.46 92 1005.9
20260505234536 49 15 9.0 19.0 0.00 0.46 0.46 92 1005.9
20260505233029 50 24 9.0 15.0 0.00 0.46 0.46 92 1005.1
20260505231527 51 13 6.0 16.0 0.00 0.46 0.46 92 1005.4
20260505230044 51 19 10.0 17.0 0.00 0.46 0.46 91 1005.2
20260505224521 52 34 9.0 16.0 0.00 0.46 0.46 91 1004.6
20260505223019 53 32 7.0 16.0 0.00 0.46 0.46 90 1004.8
20260505221517 53 5 8.0 19.0 0.00 0.46 0.46 90 1004.5
20260505220016 54 30 8.0 16.0 0.00 0.46 0.46 90 1004.0
20260505214512 55 9 6.0 17.0 0.00 0.46 0.46 90 1003.9
20260505213012 55 41 11.0 16.0 0.00 0.46 0.46 89 1004.2
20260505211512 55 9 8.0 14.0 0.00 0.46 0.46 90 1003.9
20260505210005 56 12 9.0 17.0 0.00 0.46 0.46 90 1003.5
20260505204503 56 37 6.0 14.0 0.00 0.46 0.46 91 1003.7
20260505203003 57 9 7.0 15.0 0.00 0.46 0.46 91 1003.5
20260505201502 57 34 7.0 15.0 0.00 0.46 0.46 91 1003.6
20260505200002 57 360 7.0 18.0 0.00 0.46 0.46 91 1003.6
20260505194558 57 9 8.0 15.0 0.00 0.46 0.46 90 1003.7
20260505193056 58 15 8.0 14.0 0.00 0.46 0.46 90 1003.6
20260505191610 58 37 8.0 16.0 0.00 0.46 0.46 90 1002.2
20260505190052 59 360 14.0 21.0 0.00 0.46 0.46 89 1002.9
20260505184548 61 32 13.0 21.0 0.00 0.46 0.46 87 1002.9
20260505183050 65 311 5.0 11.0 0.00 0.46 0.46 89 1002.4
20260505181549 66 17 6.0 11.0 0.00 0.46 0.46 87 1002.5
20260505174554 70 157 3.0 7.0 0.00 0.46 0.46 85 1001.9
20260505173047 69 176 3.0 10.0 0.00 0.46 0.46 86 1002.2
20260505171548 69 159 7.0 10.0 0.00 0.46 0.46 87 1002.1
20260505170044 68 134 2.0 5.0 0.00 0.46 0.46 87 1002.2
20260505164546 69 88 3.0 7.0 0.00 0.46 0.46 86 1002.3
20260505163043 68 198 1.0 4.0 0.00 0.46 0.46 86 1002.3
20260505161550 69 167 3.0 9.0 0.00 0.46 0.46 85 1002.1
20260505153039 67 146 7.0 10.0 0.00 0.46 0.46 88 1001.8
20260505151537 67 121 3.0 10.0 0.00 0.46 0.46 89 1001.9
20260505124529 61 152 8.0 11.0 0.01 0.46 0.46 93 1002.4
20260505123033 60 147 8.0 13.0 0.01 0.46 0.46 93 1002.4
20260505121527 60 151 9.0 12.0 0.01 0.46 0.46 94 1002.3
20260505120029 60 137 6.0 11.0 0.01 0.46 0.46 94 1002.3
20260505114526 60 148 9.0 12.0 0.01 0.46 0.46 94 1002.2
20260505113026 60 138 10.0 13.0 0.00 0.45 0.45 94 1002.4
20260505111525 60 109 8.0 14.0 0.00 0.45 0.45 94 1002.3
20260505101541 60 78 6.0 11.0 0.02 0.45 0.45 94 1002.7
20260505100039 60 88 7.0 11.0 0.02 0.45 0.45 94 1002.7
20260505094618 60 74 6.0 11.0 0.03 0.45 0.45 94 1002.8
20260505093021 61 55 5.0 11.0 0.02 0.44 0.44 93 1002.9
20260505091518 61 61 5.0 9.0 0.05 0.44 0.44 93 1002.8
20260505090014 61 51 2.0 6.0 0.23 0.43 0.43 93 1002.9
20260505084514 61 70 1.0 5.0 0.36 0.42 0.42 93 1002.8
20260505083013 61 71 3.0 5.0 0.38 0.42 0.42 92 1002.8
20260505081513 61 351 5.0 10.0 0.36 0.40 0.40 91 1003.2
20260505080009 62 327 8.0 19.0 0.17 0.21 0.21 89 1002.4
20260505074509 63 342 8.0 23.0 0.07 0.08 0.08 87 1002.1
20260505073022 62 350 3.0 10.0 0.03 0.04 0.04 86 1002.0
20260505071505 62 101 7.0 10.0 0.04 0.04 0.04 88 1001.0
20260505070003 62 137 11.0 14.0 0.04 0.04 0.04 87 1001.2
20260505064559 63 12 2.0 5.0 0.01 0.01 0.01 84 1003.0
20260505063113 63 52 1.0 5.0 0.01 0.01 0.01 82 1002.8